Hourly Data Report for October 01, 2016

All times are specified in Local Standard Time (LST). Add 1 hour to adjust for Daylight Saving Time where and when it is observed.

ARVIAT A
NUNAVUT

61°05'38.000" N
94°04'18.000" W
10.40 m
2300427
71174
YEK

Download Data

Hourly Data (October 2016)
Hourly Data Report for October 1, 2016
Temp Definition
°C
Dew Point Temp Definition
°C
Rel Hum Definition
%
Wind Dir Definition
10's deg

Wind Spd Definition
km/h
Visibility Definition
km
Stn Press Definition
kPa
Hmdx Definition


Wind Chill Definition


Weather Definition


TIME
00:00 Legend Double Dagger 0.6 -0.3 94 31 9 16.1 102.77     LegendNANA
01:00 Legend Double Dagger 0.4 -0.5 94 31 13 16.1 102.79     LegendNANA
02:00 Legend Double Dagger 0.4 0.0 97 33 9 16.1 102.81     LegendNANA
03:00 Legend Double Dagger 0.1 -0.5 96 33 11 16.1 102.83     LegendNANA
04:00 Legend Double Dagger 0.1 -0.2 98 32 11 16.1 102.82     LegendNANA
05:00 Legend Double Dagger -0.2 -0.8 96 31 13 16.1 102.84   -4 LegendNANA
06:00 Legend Double Dagger -0.2 -1.1 94 30 15 16.1 102.85   -5 LegendNANA
07:00 Legend Double Dagger -0.2 -1.3 92 30 15 16.1 102.87   -5 LegendNANA
08:00 Legend Double Dagger -1.0 -1.7 95 29 11 16.1 102.87   -5 LegendNANA
09:00 Legend Double Dagger -0.1 -1.2 92 27 11 16.1 102.91   -4 LegendNANA
10:00 Legend Double Dagger 1.2 -0.4 89 28 13 16.1 102.91     LegendNANA
11:00 Legend Double Dagger 2.9 -1.2 74 28 13 16.1 102.90     LegendNANA
12:00 Legend Double Dagger 3.8 -2.0 66 30 22 16.1 102.91     LegendNANA
13:00 Legend Double Dagger 3.9 -2.1 65 31 26 16.1 102.91     LegendNANA
14:00 Legend Double Dagger 4.0 -2.6 62 32 24 16.1 102.90     LegendNANA
15:00 Legend Double Dagger 3.4 -2.0 68 32 30 16.1 102.89     LegendNANA
16:00 Legend Double Dagger 3.3 -2.2 67 32 22 16.1 102.93     LegendNANA
17:00 Legend Double Dagger 3.5 -2.2 66 32 22 16.1 102.94     LegendNANA
18:00 Legend Double Dagger 3.2 -1.6 71 32 21 16.1 102.94     LegendNANA
19:00 Legend Double Dagger 2.9 -1.1 75 32 21 16.1 102.97     LegendNANA
20:00 Legend Double Dagger 2.7 -1.1 76 34 24 16.1 102.94     LegendNANA
21:00 Legend Double Dagger 2.3 -1.1 78 33 21 16.1 102.96     LegendNANA
22:00 Legend Double Dagger 2.0 -0.8 82 32 17 16.1 102.98     LegendNANA
23:00 Legend Double Dagger 2.0 -1.3 79 33 15 16.1 103.05     LegendNANA

Notes on Data Quality.

Legend

  • E = Estimated
  • M = Missing
  • NA = Not Available
  • ‡ = Partner data that is not subject to review by the National Climate Archives
Date modified: